User: anonymous   Login
Location: Nairn
(57.5833°N, 3.8667°W)
Time: 00:12:18
(UTC+00:00)
Language:

N. Korean satellite - Orbit

View from above orbital plane
View from above orbital plane
View from above satellite
View from above satellite

Ground track
Ground track

The orbit data is extracted from the following two-line orbital elements,

1 39026U 12072A   20339.61866609  .00004204  00000-0  14798-3 0  9993
2 39026  97.2334 331.5276 0036710   1.6208 358.5145 15.29221144443307
Epoch (UTC): 04 December 2020 14:50:52
Eccentricity: 0.0036710
inclination: 97.2334°
perigee height: 453 km
apogee height: 503 km
right ascension of ascending node: 331.5276°
argument of perigee: 1.6208°
revolutions per day: 15.29221144
mean anomaly at epoch: 358.5145°
orbit number at epoch: 44330

The dashed part of the orbit path shows where the satellite is in the earth's shadow,  

DLR